[[{"header":{"parameterUnit":"m.s-1","parameterCategory":1,"la1":30.2991,"la2":30.254,"lo1":-89.0895,"lo2":-89.0444,"dy":0.0017,"dx":0.0017,"nx":28,"ny":28,"refTime":"2023-09-03T03:00:00:Z","depth":0,"parameterNumber":2,"parameterNumberName":"U-component_of_WINDS"},"data":[0,0,0,0,0,0,0,0,0,0,0,0,0,0,0,0,0,0,0,0,0,0,0,0,0,0,0,0,0,0,0,0,0,0,0,0,0,0,0,0,0,0,0,0,0,0,0,0,0,0,0,0,0,0,0,0,0,0,-3.61,-3.6101,0,-3.6273,-3.6275,-3.6277,-3.6392,-3.6393,-3.6394,-3.6395,-3.6567,-3.6571,-3.6575,0,0,0,0,0,0,0,0,0,0,0,0,0,-3.5861,-3.5865,-3.6099,-3.6102,-3.6104,-3.6273,-3.6276,-3.6278,-3.6392,-3.6393,-3.6394,-3.6395,-3.6566,-3.6571,-3.6575,0,0,0,0,0,0,0,0,0,0,0,0,0,-3.5993,-3.5866,-3.6099,-3.6181,-3.619,-3.6273,-3.6276,-3.6279,-3.6392,-3.6393,-3.6394,-3.6395,-3.6565,-3.657,-3.6576,-3.6588,0,0,-3.6594,-3.6596,0,0,0,0,0,0,0,0,-3.5985,-3.6001,-3.6167,-3.6176,-3.6186,-3.6313,-3.6255,-3.6382,-3.6392,-3.6315,-3.6395,-3.6396,-3.6481,-3.6494,-3.6524,-3.6597,-3.6604,-3.6594,-3.6598,-3.66,-3.6602,0,0,0,0,0,0,0,-3.5976,-3.5994,-3.6168,-3.6169,-3.6181,-3.6208,-3.6228,-3.628,-3.6389,-3.6322,-3.6331,-3.635,-3.6487,-3.6518,-3.6529,-3.6606,-3.6594,-3.6599,-3.6603,-3.6605,-3.6698,-3.6697,0,0,0,0,0,0,-3.5954,-3.5986,-3.6163,-3.6173,-3.6087,-3.6211,-3.6234,-3.6271,-3.6389,-3.6408,-3.6349,-3.6355,-3.6507,-3.6522,-3.6535,-3.6557,-3.66,-3.6606,-3.6609,-3.6699,-3.6697,-3.6696,0,0,0,0,0,0,-3.5949,-3.5969,-3.6156,-3.6082,-3.6108,-3.6214,-3.6255,-3.6273,-3.6305,-3.641,-3.6429,-3.6361,-3.6509,-3.6527,-3.6575,-3.6564,-3.6608,-3.6614,-3.67,-3.6698,-3.6697,-3.6599,0,0,0,0,0,0,-3.5942,-3.5967,-3.5973,-3.6082,-3.6112,-3.6193,-3.6254,-3.6276,-3.6315,-3.6325,-3.6426,-3.6444,-3.6511,-3.6565,-3.658,-3.6573,-3.6618,-3.6701,-3.6699,-3.6697,-3.6604,-3.6595,-3.6587,0,0,0,0,0,-3.5933,-3.5938,-3.5973,-3.5994,-3.6123,-3.6192,-3.6209,-3.6288,-3.6314,-3.6321,-3.6388,-3.6441,-3.6564,-3.6569,-3.6587,-3.6581,-3.6702,-3.67,-3.6697,-3.6608,-3.6597,-3.6587,0,0,0,0,0,0,-3.5823,-3.5954,-3.5994,-3.6035,-3.6102,-3.6211,-3.6222,-3.6273,-3.6333,-3.6339,-3.6433,-3.6455,-3.6492,-3.6542,-3.6546,-3.6599,-3.6639,-3.664,-3.6565,-3.6555,-3.6547,-3.6532,-3.6623,0,0,0,0,0,-3.5805,-3.5852,-3.5963,-3.5988,-3.602,-3.6115,-3.6148,-3.6203,-3.6276,-3.6304,-3.6375,-3.6442,-3.6496,-3.6529,-3.6584,-3.6613,-3.6636,-3.6618,-3.6609,-3.6602,-3.6601,-3.6618,-3.6611,-3.6689,-3.6689,-3.6689,0,0,-3.5765,-3.5842,-3.5866,-3.5968,-3.6026,-3.6071,-3.6138,-3.6183,-3.6216,-3.631,-3.6359,-3.6414,-3.6495,-3.6533,-3.6553,-3.6575,-3.6585,-3.6599,-3.6592,-3.6595,-3.6615,-3.6608,-3.6601,-3.6687,-3.6687,-3.6688,0,0,-3.5715,-3.5779,-3.5807,-3.5864,-3.5953,-3.6016,-3.6023,-3.6125,-3.6165,-3.6217,-3.6288,-3.633,-3.642,-3.6475,-3.6514,-3.6487,-3.6536,-3.6502,-3.6456,-3.6472,-3.6466,-3.6461,-3.6449,-3.6444,-3.6501,-3.6501,-3.6501,0,-3.5654,-3.5726,-3.5814,-3.5855,-3.5896,-3.5987,-3.6014,-3.6065,-3.6166,-3.6192,-3.6217,-3.6333,-3.6394,-3.6445,-3.6438,-3.6468,-3.6477,-3.6489,-3.646,-3.6456,-3.6453,-3.6442,-3.6438,-3.6496,-3.6497,-3.6497,-3.6498,0,-3.5645,-3.5694,-3.5705,-3.5802,-3.5846,-3.588,-3.5971,-3.6005,-3.6057,-3.6117,-3.6168,-3.6245,-3.6317,-3.6334,-3.6384,-3.6392,-3.6403,-3.6443,-3.6484,-3.6439,-3.643,-3.6427,-3.6489,-3.6491,-3.6492,-3.6494,0,0,-3.5528,-3.5675,-3.5677,-3.5722,-3.5826,-3.5865,-3.5903,-3.5975,-3.6001,-3.6069,-3.6101,-3.6177,-3.6215,-3.6259,-3.6317,-3.6332,-3.6303,-3.637,-3.6373,-3.6352,-3.6314,-3.628,-3.6274,-3.6338,-3.6338,-3.6338,-3.6306,0,-3.5492,-3.5565,-3.5645,-3.569,-3.5735,-3.5822,-3.5855,-3.5922,-3.598,-3.6026,-3.609,-3.6141,-3.6189,-3.6216,-3.6235,-3.6302,-3.6295,-3.6306,-3.6366,-3.6368,-3.634,-3.627,-3.6235,-3.6202,-3.6304,-3.6303,-3.6303,0,-3.5458,-3.5522,-3.5571,-3.5672,-3.5694,-3.5722,-3.5794,-3.5838,-3.5916,-3.5957,-3.6008,-3.607,-3.6113,-3.6152,-3.6211,-3.6216,-3.6246,-3.6283,-3.6284,-3.6289,-3.6329,-3.6271,-3.6193,-3.6186,-3.6299,-3.6299,-3.6299,0,-3.5363,-3.5463,-3.5505,-3.5541,-3.566,-3.5677,-3.5727,-3.5807,-3.5845,-3.5909,-3.5934,-3.6001,-3.6037,-3.6087,-3.6166,-3.6187,-3.6216,-3.6261,-3.6249,-3.6247,-3.6248,-3.6246,-3.617,-3.6273,-3.6273,-3.6273,-3.6273,0,-3.5312,-3.5337,-3.5464,-3.5489,-3.552,-3.5613,-3.5641,-3.5699,-3.5769,-3.5806,-3.5887,-3.5919,-3.6023,-3.6068,-3.613,-3.6168,-3.6185,-3.6218,-3.6233,-3.6208,-3.6204,-3.6226,-3.6229,-3.6272,-3.6272,-3.6272,-3.6273,0,-3.521,-3.5296,-3.5347,-3.5457,-3.5485,-3.5503,-3.5596,-3.5623,-3.5688,-3.5733,-3.5749,-3.5849,-3.5906,-3.5991,-3.6074,-3.6115,-3.6143,-3.617,-3.6116,-3.6125,-3.6106,-3.6105,-3.6039,-3.6034,-3.6143,-3.6142,-3.6141,0,-3.5169,-3.5191,-3.5304,-3.5335,-3.5383,-3.5433,-3.5473,-3.5566,-3.5603,-3.5695,-3.571,-3.5774,-3.5829,-3.5917,-3.5996,-3.6059,-3.6087,-3.606,-3.6096,-3.607,-3.6082,-3.6078,-3.608,-3.6049,-3.6047,-3.6046,-3.6045,0,-3.5087,-3.5129,-3.5184,-3.5254,-3.53,-3.5359,-3.5422,-3.5443,-3.5549,-3.5588,-3.5648,-3.5691,-3.5777,-3.5838,-3.5913,-3.5964,-3.602,-3.6034,-3.6033,-3.6006,-3.5972,-3.5987,-3.6088,-3.6033,-3.6034,-3.6035,-3.6036,-3.6036,-3.5012,-3.5035,-3.5118,-3.5176,-3.5234,-3.5292,-3.5322,-3.5391,-3.5444,-3.552,-3.5573,-3.5629,-3.5708,-3.5814,-3.5862,-3.5907,-3.5932,-3.5932,-3.5932,-3.5929,-3.5919,-3.5969,-3.5922,-3.5922,-3.5923,-3.5923,-3.5924,0,-3.4931,-3.4989,-3.5042,-3.5128,-3.5174,-3.5228,-3.5301,-3.5335,-3.5384,-3.5453,-3.5507,-3.5575,-3.5636,-3.5721,-3.5788,-3.5808,-3.5835,-3.5822,-3.5819,-3.5829,-3.5895,-3.5887,-3.5798,-3.5798,-3.5798,-3.5798,-3.5798,-3.5798,-3.4893,-3.4934,-3.4986,-3.5057,-3.5115,-3.5172,-3.5209,-3.5262,-3.5317,-3.539,-3.5442,-3.5498,-3.5573,-3.5647,-3.5704,-3.5728,-3.5747,-3.5724,-3.5755,-3.5814,-3.5825,-3.5836,-3.5828,-3.5729,-3.5728,-3.5685,-3.5685,-3.5685]},{"header":{"parameterUnit":"m.s-1","parameterCategory":1,"la1":30.2991,"la2":30.254,"lo1":-89.0895,"lo2":-89.0444,"dy":0.0017,"dx":0.0017,"nx":28,"ny":28,"refTime":"2023-09-03T03:00:00:Z","depth":0,"parameterNumber":3,"parameterNumberName":"V-component_of_WINDS"},"data":[0,0,0,0,0,0,0,0,0,0,0,0,0,0,0,0,0,0,0,0,0,0,0,0,0,0,0,0,0,0,0,0,0,0,0,0,0,0,0,0,0,0,0,0,0,0,0,0,0,0,0,0,0,0,0,0,0,0,3.3896,3.3901,0,3.4394,3.44,3.4406,3.459,3.4589,3.4587,3.4586,3.5092,3.5107,3.5122,0,0,0,0,0,0,0,0,0,0,0,0,0,3.31,3.3113,3.3895,3.3901,3.3908,3.4393,3.44,3.4407,3.4591,3.4589,3.4587,3.4585,3.5087,3.5105,3.5123,0,0,0,0,0,0,0,0,0,0,0,0,0,3.3506,3.3118,3.3894,3.4058,3.4078,3.4392,3.44,3.4409,3.4591,3.4589,3.4586,3.4584,3.5082,3.5103,3.5126,3.5312,0,0,3.5194,3.5204,0,0,0,0,0,0,0,0,3.3483,3.3535,3.4028,3.4047,3.407,3.4428,3.4306,3.4712,3.4592,3.4396,3.4586,3.4583,3.4873,3.4912,3.5011,3.5336,3.5358,3.5196,3.521,3.522,3.5226,0,0,0,0,0,0,0,3.3454,3.3515,3.4093,3.4034,3.406,3.4106,3.4161,3.4384,3.4642,3.4413,3.4427,3.4484,3.4884,3.4989,3.5024,3.5365,3.5196,3.5216,3.523,3.5238,3.5871,3.5875,0,0,0,0,0,0,3.3399,3.349,3.4077,3.4108,3.3765,3.4122,3.4184,3.4315,3.464,3.4687,3.4486,3.4491,3.4952,3.4998,3.5043,3.5285,3.5219,3.524,3.5253,3.5868,3.5872,3.5876,0,0,0,0,0,0,3.3382,3.345,3.4057,3.3803,3.3884,3.4138,3.4284,3.4326,3.4432,3.4695,3.4742,3.4546,3.4952,3.5011,3.5245,3.5305,3.5251,3.5271,3.5864,3.5869,3.5874,3.5768,0,0,0,0,0,0,3.3358,3.3442,3.3516,3.3803,3.3897,3.425,3.4288,3.4338,3.447,3.4482,3.4764,3.4808,3.4954,3.521,3.5267,3.5335,3.5289,3.586,3.5866,3.5872,3.5767,3.5768,3.5769,0,0,0,0,0,3.3329,3.3465,3.3519,3.3589,3.3994,3.4253,3.4307,3.4474,3.4474,3.4551,3.472,3.4799,3.5289,3.5233,3.5298,3.5373,3.5857,3.5865,3.5872,3.5766,3.5768,3.5769,0,0,0,0,0,0,3.3176,3.3506,3.3569,3.3802,3.3999,3.4284,3.4385,3.447,3.4669,3.4671,3.4869,3.4931,3.5149,3.5285,3.5216,3.5572,3.5578,3.5599,3.5475,3.5479,3.548,3.5443,3.5307,0,0,0,0,0,3.317,3.3354,3.3631,3.381,3.3906,3.4128,3.4247,3.4359,3.457,3.4653,3.484,3.5041,3.5241,3.5368,3.5566,3.5788,3.5852,3.5872,3.5873,3.5873,3.5888,3.6018,3.603,3.59,3.59,3.59,0,0,3.3158,3.3361,3.3465,3.3785,3.395,3.4136,3.4197,3.439,3.4529,3.4683,3.4915,3.5059,3.5296,3.5525,3.5635,3.5645,3.5939,3.5883,3.588,3.5897,3.6026,3.6038,3.6049,3.5905,3.5905,3.5904,0,0,3.3232,3.3404,3.3573,3.3738,3.3988,3.4136,3.4176,3.445,3.4552,3.4789,3.4909,3.5077,3.5416,3.5581,3.5709,3.5848,3.5928,3.5907,3.5913,3.6037,3.6047,3.6057,3.6107,3.6123,3.5922,3.5921,3.5921,0,3.3185,3.3471,3.3648,3.3837,3.3974,3.4124,3.4296,3.4447,3.4748,3.484,3.4847,3.5278,3.5448,3.5718,3.5752,3.5851,3.5903,3.5875,3.6031,3.6043,3.6055,3.6105,3.6123,3.5917,3.5918,3.5918,3.5918,0,3.3402,3.3598,3.3704,3.3993,3.4143,3.4322,3.4526,3.4657,3.4756,3.4902,3.5142,3.5352,3.5596,3.5669,3.5767,3.5954,3.5953,3.5993,3.6003,3.606,3.6111,3.6131,3.5911,3.5913,3.5914,3.5915,0,0,3.3391,3.3779,3.3815,3.3949,3.4237,3.4392,3.4578,3.4819,3.4927,3.513,3.5291,3.5576,3.5616,3.5761,3.588,3.5988,3.6085,3.6016,3.6025,3.6022,3.6306,3.6273,3.6292,3.6141,3.6145,3.6149,3.6286,0,3.3503,3.3844,3.401,3.4278,3.4462,3.4607,3.477,3.4964,3.5106,3.5283,3.544,3.5639,3.5676,3.5765,3.5879,3.6049,3.6145,3.6042,3.6292,3.6299,3.6228,3.6319,3.6285,3.6404,3.6306,3.631,3.6312,0,3.3679,3.3883,3.4169,3.4439,3.4522,3.4665,3.49,3.5067,3.529,3.5386,3.5549,3.5665,3.5866,3.5862,3.6143,3.6069,3.6181,3.628,3.6289,3.6318,3.6308,3.635,3.6446,3.6463,3.6345,3.6342,3.634,0,3.3643,3.399,3.4207,3.4317,3.4636,3.4733,3.487,3.5092,3.5226,3.5431,3.5521,3.5745,3.5868,3.604,3.6213,3.6194,3.6477,3.6487,3.6562,3.6558,3.6614,3.6608,3.6729,3.6687,3.6686,3.6686,3.6685,0,3.375,3.3919,3.4195,3.4328,3.4523,3.4713,3.49,3.5048,3.5244,3.5409,3.5548,3.5699,3.5919,3.6098,3.6235,3.6447,3.6501,3.6584,3.6618,3.6572,3.6561,3.6648,3.6644,3.6691,3.669,3.6689,3.6688,0,3.3742,3.3934,3.418,3.4462,3.4538,3.4668,3.491,3.5045,3.5195,3.5402,3.5461,3.5696,3.5914,3.6105,3.6392,3.6484,3.6702,3.6744,3.6626,3.6645,3.6709,3.67,3.689,3.6925,3.6857,3.6858,3.6858,0,3.3798,3.3932,3.423,3.4351,3.4486,3.4679,3.4818,3.501,3.5149,3.5415,3.5518,3.5746,3.5939,3.6281,3.6477,3.6698,3.6746,3.6797,3.678,3.6729,3.6747,3.6737,3.6752,3.6796,3.6796,3.6796,3.6796,0,3.3876,3.3965,3.416,3.439,3.4552,3.4741,3.4934,3.5025,3.5254,3.5402,3.5628,3.5778,3.6073,3.6298,3.6541,3.6682,3.6777,3.68,3.6829,3.6783,3.6709,3.675,3.6626,3.6794,3.6794,3.6795,3.6795,3.6795,3.3903,3.403,3.426,3.4473,3.4639,3.4817,3.4958,3.5127,3.5319,3.5575,3.5677,3.5907,3.6129,3.6466,3.6607,3.6789,3.6805,3.6847,3.6858,3.6865,3.6858,3.668,3.6834,3.6835,3.6835,3.6835,3.6835,0,3.3989,3.4145,3.4339,3.4607,3.4774,3.4851,3.507,3.5205,3.5406,3.5606,3.5794,3.6053,3.6273,3.6487,3.6718,3.6823,3.6873,3.6877,3.6871,3.6902,3.683,3.6782,3.6833,3.6833,3.6833,3.6833,3.6833,3.6833,3.4054,3.4273,3.4389,3.4691,3.4847,3.5074,3.5192,3.5357,3.5518,3.5802,3.5986,3.6125,3.6332,3.6579,3.6784,3.6842,3.692,3.6913,3.6981,3.691,3.6907,3.6905,3.6861,3.6928,3.6928,3.7039,3.704,3.7041]}]]